<?xml version="1.0"?>
<gpx xmlns="http://www.topografix.com/GPX/1/1" xmlns:xsi="http://www.w3.org/2001/XMLSchema-instance" version="1.1" creator="GPX RubyGem 1.0.0 -- http://dougfales.github.io/gpx/" xsi:schemaLocation="http://www.topografix.com/GPX/1/1 http://www.topografix.com/GPX/1/1/gpx.xsd">
  <metadata>
    <name/>
    <time>2026-05-09T05:13:55+00:00</time>
    <bound minlat="90.0" minlon="180.0" maxlat="-90.0" maxlon="-180.0"/>
  </metadata>
  <trk>
    <name/>
    <trkseg>
      <trkpt lat="44.209049" lon="10.725173">
        <time>1970-01-01T00:00:00+00:00</time>
        <ele>1511.0</ele>
      </trkpt>
      <trkpt lat="44.209141" lon="10.725222">
        <time>1970-01-01T00:00:00+00:00</time>
        <ele>1511.0</ele>
      </trkpt>
      <trkpt lat="44.209325" lon="10.725348">
        <time>1970-01-01T00:00:00+00:00</time>
        <ele>1510.0</ele>
      </trkpt>
      <trkpt lat="44.209142" lon="10.724667">
        <time>1970-01-01T00:00:00+00:00</time>
        <ele>1506.0</ele>
      </trkpt>
      <trkpt lat="44.209018" lon="10.724471">
        <time>1970-01-01T00:00:00+00:00</time>
        <ele>1506.0</ele>
      </trkpt>
      <trkpt lat="44.208971" lon="10.724335">
        <time>1970-01-01T00:00:00+00:00</time>
        <ele>1505.0</ele>
      </trkpt>
      <trkpt lat="44.208944" lon="10.724101">
        <time>1970-01-01T00:00:00+00:00</time>
        <ele>1504.0</ele>
      </trkpt>
      <trkpt lat="44.20884" lon="10.723401">
        <time>1970-01-01T00:00:00+00:00</time>
        <ele>1505.0</ele>
      </trkpt>
      <trkpt lat="44.208834" lon="10.723039">
        <time>1970-01-01T00:00:00+00:00</time>
        <ele>1510.0</ele>
      </trkpt>
      <trkpt lat="44.208632" lon="10.722466">
        <time>1970-01-01T00:00:00+00:00</time>
        <ele>1523.0</ele>
      </trkpt>
      <trkpt lat="44.208576" lon="10.722374">
        <time>1970-01-01T00:00:00+00:00</time>
        <ele>1525.0</ele>
      </trkpt>
      <trkpt lat="44.208404" lon="10.722203">
        <time>1970-01-01T00:00:00+00:00</time>
        <ele>1529.0</ele>
      </trkpt>
      <trkpt lat="44.208316" lon="10.721742">
        <time>1970-01-01T00:00:00+00:00</time>
        <ele>1538.0</ele>
      </trkpt>
      <trkpt lat="44.208305" lon="10.721584">
        <time>1970-01-01T00:00:00+00:00</time>
        <ele>1541.0</ele>
      </trkpt>
      <trkpt lat="44.208151" lon="10.721132">
        <time>1970-01-01T00:00:00+00:00</time>
        <ele>1551.0</ele>
      </trkpt>
      <trkpt lat="44.208125" lon="10.720981">
        <time>1970-01-01T00:00:00+00:00</time>
        <ele>1555.0</ele>
      </trkpt>
      <trkpt lat="44.208025" lon="10.720789">
        <time>1970-01-01T00:00:00+00:00</time>
        <ele>1564.0</ele>
      </trkpt>
      <trkpt lat="44.207944" lon="10.720698">
        <time>1970-01-01T00:00:00+00:00</time>
        <ele>1569.0</ele>
      </trkpt>
      <trkpt lat="44.207891" lon="10.720695">
        <time>1970-01-01T00:00:00+00:00</time>
        <ele>1569.0</ele>
      </trkpt>
      <trkpt lat="44.207747" lon="10.720581">
        <time>1970-01-01T00:00:00+00:00</time>
        <ele>1574.0</ele>
      </trkpt>
      <trkpt lat="44.207738" lon="10.720496">
        <time>1970-01-01T00:00:00+00:00</time>
        <ele>1576.0</ele>
      </trkpt>
      <trkpt lat="44.207748" lon="10.720399">
        <time>1970-01-01T00:00:00+00:00</time>
        <ele>1579.0</ele>
      </trkpt>
      <trkpt lat="44.207786" lon="10.720304">
        <time>1970-01-01T00:00:00+00:00</time>
        <ele>1581.0</ele>
      </trkpt>
      <trkpt lat="44.20782" lon="10.720282">
        <time>1970-01-01T00:00:00+00:00</time>
        <ele>1582.0</ele>
      </trkpt>
      <trkpt lat="44.207823" lon="10.720186">
        <time>1970-01-01T00:00:00+00:00</time>
        <ele>1585.0</ele>
      </trkpt>
      <trkpt lat="44.207806" lon="10.720149">
        <time>1970-01-01T00:00:00+00:00</time>
        <ele>1586.0</ele>
      </trkpt>
      <trkpt lat="44.207817" lon="10.71998">
        <time>1970-01-01T00:00:00+00:00</time>
        <ele>1592.0</ele>
      </trkpt>
      <trkpt lat="44.207805" lon="10.719812">
        <time>1970-01-01T00:00:00+00:00</time>
        <ele>1598.0</ele>
      </trkpt>
      <trkpt lat="44.207658" lon="10.719671">
        <time>1970-01-01T00:00:00+00:00</time>
        <ele>1599.0</ele>
      </trkpt>
      <trkpt lat="44.207845" lon="10.719155">
        <time>1970-01-01T00:00:00+00:00</time>
        <ele>1618.0</ele>
      </trkpt>
      <trkpt lat="44.20772" lon="10.71895">
        <time>1970-01-01T00:00:00+00:00</time>
        <ele>1620.0</ele>
      </trkpt>
      <trkpt lat="44.20783" lon="10.71889">
        <time>1970-01-01T00:00:00+00:00</time>
        <ele>1625.0</ele>
      </trkpt>
      <trkpt lat="44.207881" lon="10.718897">
        <time>1970-01-01T00:00:00+00:00</time>
        <ele>1626.0</ele>
      </trkpt>
      <trkpt lat="44.20801" lon="10.71871">
        <time>1970-01-01T00:00:00+00:00</time>
        <ele>1632.0</ele>
      </trkpt>
      <trkpt lat="44.208113" lon="10.718618">
        <time>1970-01-01T00:00:00+00:00</time>
        <ele>1637.0</ele>
      </trkpt>
      <trkpt lat="44.208226" lon="10.718605">
        <time>1970-01-01T00:00:00+00:00</time>
        <ele>1640.0</ele>
      </trkpt>
      <trkpt lat="44.208244" lon="10.718573">
        <time>1970-01-01T00:00:00+00:00</time>
        <ele>1642.0</ele>
      </trkpt>
      <trkpt lat="44.208233" lon="10.718507">
        <time>1970-01-01T00:00:00+00:00</time>
        <ele>1643.0</ele>
      </trkpt>
      <trkpt lat="44.208304" lon="10.71847">
        <time>1970-01-01T00:00:00+00:00</time>
        <ele>1646.0</ele>
      </trkpt>
      <trkpt lat="44.208461" lon="10.718298">
        <time>1970-01-01T00:00:00+00:00</time>
        <ele>1652.0</ele>
      </trkpt>
      <trkpt lat="44.20848" lon="10.718253">
        <time>1970-01-01T00:00:00+00:00</time>
        <ele>1652.0</ele>
      </trkpt>
      <trkpt lat="44.208438" lon="10.71785">
        <time>1970-01-01T00:00:00+00:00</time>
        <ele>1655.0</ele>
      </trkpt>
      <trkpt lat="44.20839" lon="10.717714">
        <time>1970-01-01T00:00:00+00:00</time>
        <ele>1656.0</ele>
      </trkpt>
      <trkpt lat="44.208448" lon="10.717579">
        <time>1970-01-01T00:00:00+00:00</time>
        <ele>1658.0</ele>
      </trkpt>
      <trkpt lat="44.208389" lon="10.717497">
        <time>1970-01-01T00:00:00+00:00</time>
        <ele>1659.0</ele>
      </trkpt>
      <trkpt lat="44.208169" lon="10.71748">
        <time>1970-01-01T00:00:00+00:00</time>
        <ele>1656.0</ele>
      </trkpt>
      <trkpt lat="44.20785" lon="10.717329">
        <time>1970-01-01T00:00:00+00:00</time>
        <ele>1656.0</ele>
      </trkpt>
      <trkpt lat="44.20767" lon="10.717105">
        <time>1970-01-01T00:00:00+00:00</time>
        <ele>1661.0</ele>
      </trkpt>
      <trkpt lat="44.207606" lon="10.716897">
        <time>1970-01-01T00:00:00+00:00</time>
        <ele>1666.0</ele>
      </trkpt>
      <trkpt lat="44.207484" lon="10.716595">
        <time>1970-01-01T00:00:00+00:00</time>
        <ele>1669.0</ele>
      </trkpt>
      <trkpt lat="44.207397" lon="10.716456">
        <time>1970-01-01T00:00:00+00:00</time>
        <ele>1670.0</ele>
      </trkpt>
      <trkpt lat="44.206992" lon="10.716296">
        <time>1970-01-01T00:00:00+00:00</time>
        <ele>1677.0</ele>
      </trkpt>
      <trkpt lat="44.206423" lon="10.716183">
        <time>1970-01-01T00:00:00+00:00</time>
        <ele>1684.0</ele>
      </trkpt>
      <trkpt lat="44.206326" lon="10.716255">
        <time>1970-01-01T00:00:00+00:00</time>
        <ele>1686.0</ele>
      </trkpt>
      <trkpt lat="44.205853" lon="10.716236">
        <time>1970-01-01T00:00:00+00:00</time>
        <ele>1701.0</ele>
      </trkpt>
      <trkpt lat="44.205387" lon="10.715993">
        <time>1970-01-01T00:00:00+00:00</time>
        <ele>1720.0</ele>
      </trkpt>
      <trkpt lat="44.204839" lon="10.715586">
        <time>1970-01-01T00:00:00+00:00</time>
        <ele>1751.0</ele>
      </trkpt>
      <trkpt lat="44.204158" lon="10.715343">
        <time>1970-01-01T00:00:00+00:00</time>
        <ele>1792.0</ele>
      </trkpt>
      <trkpt lat="44.203773" lon="10.715161">
        <time>1970-01-01T00:00:00+00:00</time>
        <ele>1807.0</ele>
      </trkpt>
      <trkpt lat="44.203452" lon="10.714969">
        <time>1970-01-01T00:00:00+00:00</time>
        <ele>1810.0</ele>
      </trkpt>
      <trkpt lat="44.203359" lon="10.714709">
        <time>1970-01-01T00:00:00+00:00</time>
        <ele>1811.0</ele>
      </trkpt>
      <trkpt lat="44.203295" lon="10.714118">
        <time>1970-01-01T00:00:00+00:00</time>
        <ele>1812.0</ele>
      </trkpt>
      <trkpt lat="44.203295" lon="10.714118">
        <time>1970-01-01T00:00:00+00:00</time>
        <ele>1812.0</ele>
      </trkpt>
      <trkpt lat="44.203359" lon="10.714709">
        <time>1970-01-01T00:00:00+00:00</time>
        <ele>1811.0</ele>
      </trkpt>
      <trkpt lat="44.203452" lon="10.714969">
        <time>1970-01-01T00:00:00+00:00</time>
        <ele>1810.0</ele>
      </trkpt>
      <trkpt lat="44.203773" lon="10.715161">
        <time>1970-01-01T00:00:00+00:00</time>
        <ele>1807.0</ele>
      </trkpt>
      <trkpt lat="44.204158" lon="10.715343">
        <time>1970-01-01T00:00:00+00:00</time>
        <ele>1792.0</ele>
      </trkpt>
      <trkpt lat="44.204839" lon="10.715586">
        <time>1970-01-01T00:00:00+00:00</time>
        <ele>1751.0</ele>
      </trkpt>
      <trkpt lat="44.205387" lon="10.715993">
        <time>1970-01-01T00:00:00+00:00</time>
        <ele>1720.0</ele>
      </trkpt>
      <trkpt lat="44.205853" lon="10.716236">
        <time>1970-01-01T00:00:00+00:00</time>
        <ele>1701.0</ele>
      </trkpt>
      <trkpt lat="44.206326" lon="10.716255">
        <time>1970-01-01T00:00:00+00:00</time>
        <ele>1686.0</ele>
      </trkpt>
      <trkpt lat="44.206423" lon="10.716183">
        <time>1970-01-01T00:00:00+00:00</time>
        <ele>1684.0</ele>
      </trkpt>
      <trkpt lat="44.206992" lon="10.716296">
        <time>1970-01-01T00:00:00+00:00</time>
        <ele>1677.0</ele>
      </trkpt>
      <trkpt lat="44.207397" lon="10.716456">
        <time>1970-01-01T00:00:00+00:00</time>
        <ele>1670.0</ele>
      </trkpt>
      <trkpt lat="44.207484" lon="10.716595">
        <time>1970-01-01T00:00:00+00:00</time>
        <ele>1669.0</ele>
      </trkpt>
      <trkpt lat="44.207606" lon="10.716897">
        <time>1970-01-01T00:00:00+00:00</time>
        <ele>1666.0</ele>
      </trkpt>
      <trkpt lat="44.20767" lon="10.717105">
        <time>1970-01-01T00:00:00+00:00</time>
        <ele>1661.0</ele>
      </trkpt>
      <trkpt lat="44.20785" lon="10.717329">
        <time>1970-01-01T00:00:00+00:00</time>
        <ele>1656.0</ele>
      </trkpt>
      <trkpt lat="44.208169" lon="10.71748">
        <time>1970-01-01T00:00:00+00:00</time>
        <ele>1656.0</ele>
      </trkpt>
      <trkpt lat="44.208389" lon="10.717497">
        <time>1970-01-01T00:00:00+00:00</time>
        <ele>1659.0</ele>
      </trkpt>
      <trkpt lat="44.208448" lon="10.717579">
        <time>1970-01-01T00:00:00+00:00</time>
        <ele>1658.0</ele>
      </trkpt>
      <trkpt lat="44.20839" lon="10.717714">
        <time>1970-01-01T00:00:00+00:00</time>
        <ele>1656.0</ele>
      </trkpt>
      <trkpt lat="44.208438" lon="10.71785">
        <time>1970-01-01T00:00:00+00:00</time>
        <ele>1655.0</ele>
      </trkpt>
      <trkpt lat="44.20848" lon="10.718253">
        <time>1970-01-01T00:00:00+00:00</time>
        <ele>1652.0</ele>
      </trkpt>
      <trkpt lat="44.208461" lon="10.718298">
        <time>1970-01-01T00:00:00+00:00</time>
        <ele>1652.0</ele>
      </trkpt>
      <trkpt lat="44.208304" lon="10.71847">
        <time>1970-01-01T00:00:00+00:00</time>
        <ele>1646.0</ele>
      </trkpt>
      <trkpt lat="44.208233" lon="10.718507">
        <time>1970-01-01T00:00:00+00:00</time>
        <ele>1643.0</ele>
      </trkpt>
      <trkpt lat="44.208244" lon="10.718573">
        <time>1970-01-01T00:00:00+00:00</time>
        <ele>1642.0</ele>
      </trkpt>
      <trkpt lat="44.208226" lon="10.718605">
        <time>1970-01-01T00:00:00+00:00</time>
        <ele>1640.0</ele>
      </trkpt>
      <trkpt lat="44.208113" lon="10.718618">
        <time>1970-01-01T00:00:00+00:00</time>
        <ele>1637.0</ele>
      </trkpt>
      <trkpt lat="44.20801" lon="10.71871">
        <time>1970-01-01T00:00:00+00:00</time>
        <ele>1632.0</ele>
      </trkpt>
      <trkpt lat="44.207881" lon="10.718897">
        <time>1970-01-01T00:00:00+00:00</time>
        <ele>1626.0</ele>
      </trkpt>
      <trkpt lat="44.20783" lon="10.71889">
        <time>1970-01-01T00:00:00+00:00</time>
        <ele>1625.0</ele>
      </trkpt>
      <trkpt lat="44.20772" lon="10.71895">
        <time>1970-01-01T00:00:00+00:00</time>
        <ele>1620.0</ele>
      </trkpt>
      <trkpt lat="44.207845" lon="10.719155">
        <time>1970-01-01T00:00:00+00:00</time>
        <ele>1618.0</ele>
      </trkpt>
      <trkpt lat="44.207658" lon="10.719671">
        <time>1970-01-01T00:00:00+00:00</time>
        <ele>1599.0</ele>
      </trkpt>
      <trkpt lat="44.207805" lon="10.719812">
        <time>1970-01-01T00:00:00+00:00</time>
        <ele>1598.0</ele>
      </trkpt>
      <trkpt lat="44.207817" lon="10.71998">
        <time>1970-01-01T00:00:00+00:00</time>
        <ele>1592.0</ele>
      </trkpt>
      <trkpt lat="44.207806" lon="10.720149">
        <time>1970-01-01T00:00:00+00:00</time>
        <ele>1586.0</ele>
      </trkpt>
      <trkpt lat="44.207823" lon="10.720186">
        <time>1970-01-01T00:00:00+00:00</time>
        <ele>1585.0</ele>
      </trkpt>
      <trkpt lat="44.20782" lon="10.720282">
        <time>1970-01-01T00:00:00+00:00</time>
        <ele>1582.0</ele>
      </trkpt>
      <trkpt lat="44.207786" lon="10.720304">
        <time>1970-01-01T00:00:00+00:00</time>
        <ele>1581.0</ele>
      </trkpt>
      <trkpt lat="44.207748" lon="10.720399">
        <time>1970-01-01T00:00:00+00:00</time>
        <ele>1579.0</ele>
      </trkpt>
      <trkpt lat="44.207738" lon="10.720496">
        <time>1970-01-01T00:00:00+00:00</time>
        <ele>1576.0</ele>
      </trkpt>
      <trkpt lat="44.207747" lon="10.720581">
        <time>1970-01-01T00:00:00+00:00</time>
        <ele>1574.0</ele>
      </trkpt>
      <trkpt lat="44.207891" lon="10.720695">
        <time>1970-01-01T00:00:00+00:00</time>
        <ele>1569.0</ele>
      </trkpt>
      <trkpt lat="44.207944" lon="10.720698">
        <time>1970-01-01T00:00:00+00:00</time>
        <ele>1569.0</ele>
      </trkpt>
      <trkpt lat="44.208025" lon="10.720789">
        <time>1970-01-01T00:00:00+00:00</time>
        <ele>1564.0</ele>
      </trkpt>
      <trkpt lat="44.208125" lon="10.720981">
        <time>1970-01-01T00:00:00+00:00</time>
        <ele>1555.0</ele>
      </trkpt>
      <trkpt lat="44.208151" lon="10.721132">
        <time>1970-01-01T00:00:00+00:00</time>
        <ele>1551.0</ele>
      </trkpt>
      <trkpt lat="44.208305" lon="10.721584">
        <time>1970-01-01T00:00:00+00:00</time>
        <ele>1541.0</ele>
      </trkpt>
      <trkpt lat="44.208316" lon="10.721742">
        <time>1970-01-01T00:00:00+00:00</time>
        <ele>1538.0</ele>
      </trkpt>
      <trkpt lat="44.208404" lon="10.722203">
        <time>1970-01-01T00:00:00+00:00</time>
        <ele>1529.0</ele>
      </trkpt>
      <trkpt lat="44.208576" lon="10.722374">
        <time>1970-01-01T00:00:00+00:00</time>
        <ele>1525.0</ele>
      </trkpt>
      <trkpt lat="44.208632" lon="10.722466">
        <time>1970-01-01T00:00:00+00:00</time>
        <ele>1523.0</ele>
      </trkpt>
      <trkpt lat="44.208834" lon="10.723039">
        <time>1970-01-01T00:00:00+00:00</time>
        <ele>1510.0</ele>
      </trkpt>
      <trkpt lat="44.20884" lon="10.723401">
        <time>1970-01-01T00:00:00+00:00</time>
        <ele>1505.0</ele>
      </trkpt>
      <trkpt lat="44.208944" lon="10.724101">
        <time>1970-01-01T00:00:00+00:00</time>
        <ele>1504.0</ele>
      </trkpt>
      <trkpt lat="44.208971" lon="10.724335">
        <time>1970-01-01T00:00:00+00:00</time>
        <ele>1505.0</ele>
      </trkpt>
      <trkpt lat="44.209018" lon="10.724471">
        <time>1970-01-01T00:00:00+00:00</time>
        <ele>1506.0</ele>
      </trkpt>
      <trkpt lat="44.209142" lon="10.724667">
        <time>1970-01-01T00:00:00+00:00</time>
        <ele>1506.0</ele>
      </trkpt>
      <trkpt lat="44.209325" lon="10.725348">
        <time>1970-01-01T00:00:00+00:00</time>
        <ele>1510.0</ele>
      </trkpt>
      <trkpt lat="44.209141" lon="10.725222">
        <time>1970-01-01T00:00:00+00:00</time>
        <ele>1511.0</ele>
      </trkpt>
      <trkpt lat="44.209049" lon="10.725173">
        <time>1970-01-01T00:00:00+00:00</time>
        <ele>1511.0</ele>
      </trkpt>
    </trkseg>
  </trk>
</gpx>
